Asheboro, NC

12:22 PM EDT on September 29, 2016 (GMT -0400)
Asheboro Municipal

Weather History for KHBI - July, 2012

Change the Weather History Date:

Sunday, July 8, 2012

  Actual Average Record
Temperature  
Mean Temperature 86 °F -  
Max Temperature 96 °F 89 °F 102 °F (1977)
Min Temperature 77 °F 67 °F 52 °F (1933)
Cooling Degree Days 22    
Growing Degree Days 36 (Base 50)    
Moisture  
Dew Point 70 °F    
Average Humidity 60    
Maximum Humidity 78    
Minimum Humidity 34    
Precipitation  
Precipitation 0.00 in - - ()
Sea Level Pressure  
Sea Level Pressure 29.96 in    
Wind  
Wind Speed 3 mph (SW)    
Max Wind Speed 9 mph    
Max Gust Speed -    
Visibility 10 miles    
Events      
Averages and records for this station are not official NWS values.
T = Trace of Precipitation, MM = Missing Value Source: NWS Daily Summary

Daily Weather History Graph

Daily Weather History Graph

Search for Another Location

Airport or City:

Trip Planner

Search our weather history database for the weather conditions in past years. The results will help you decide how hot, cold, wet, or windy it might be!

Date:

Astronomy

Jul. 08, 2012 Rise Set
Actual Time 6:11 AM EDT 8:37 PM EDT
Civil Twilight 5:41 AM EDT 9:07 PM EDT
Nautical Twilight 5:05 AM EDT 9:44 PM EDT
Astronomical Twilight 4:24 AM EDT 10:24 PM EDT
Moon 11:38 PM EDT (7/8) 11:23 AM EDT (7/8)
Length of Visible Light 15h 25m
Length of Day
14h 26m
Waning Gibbous, 73% of the Moon is Illuminated
Jul 8
Waning Gibbous
Jul 10
Last Quarter
Jul 19
New
Jul 26
First Quarter
Aug 1
Full

Hourly Weather History & Observations

Time (EDT) Temp. Heat Index Dew Point Humidity Pressure Visibility Wind Dir Wind Speed Gust Speed Precip Events Conditions
12:35 AM 80.6 °F 83.2 °F 68.0 °F 65% 30.02 in 10.0 mi Calm Calm - N/A   Clear
12:55 AM 80.6 °F 83.2 °F 68.0 °F 65% 30.02 in 10.0 mi Calm Calm - N/A   Clear
1:15 AM 78.8 °F - 68.0 °F 69% 30.01 in 10.0 mi Calm Calm - N/A   Clear
1:35 AM 78.8 °F - 68.0 °F 69% 30.02 in 10.0 mi Calm Calm - N/A   Clear
1:55 AM 78.8 °F - 68.0 °F 69% 30.01 in 10.0 mi Calm Calm - N/A   Clear
2:15 AM 78.8 °F - 68.0 °F 69% 30.01 in 10.0 mi Calm Calm - N/A   Clear
2:35 AM 78.8 °F - 68.0 °F 69% 30.01 in 10.0 mi SSW 4.6 mph - N/A   Clear
2:55 AM 78.8 °F - 68.0 °F 69% 30.00 in 10.0 mi SSW 4.6 mph - N/A   Clear
3:15 AM 78.8 °F - 68.0 °F 69% 30.00 in 10.0 mi SW 4.6 mph - N/A   Clear
3:35 AM 78.8 °F - 69.8 °F 74% 30.00 in 10.0 mi Calm Calm - N/A   Clear
3:55 AM 78.8 °F - 69.8 °F 74% 30.00 in 10.0 mi SSW 3.5 mph - N/A   Clear
4:15 AM 78.8 °F - 69.8 °F 74% 29.99 in 10.0 mi SSW 3.5 mph - N/A   Clear
4:35 AM 78.8 °F - 69.8 °F 74% 29.99 in 10.0 mi South 4.6 mph - N/A   Clear
4:55 AM 78.8 °F - 69.8 °F 74% 29.99 in 10.0 mi SSW 3.5 mph - N/A   Clear
5:15 AM 78.8 °F - 69.8 °F 74% 29.99 in 10.0 mi South 3.5 mph - N/A   Clear
5:35 AM 78.8 °F - 69.8 °F 74% 30.00 in 10.0 mi SSW 4.6 mph - N/A   Clear
5:55 AM 77.0 °F - 69.8 °F 78% 30.00 in 10.0 mi SSW 3.5 mph - N/A   Clear
6:15 AM 77.0 °F - 69.8 °F 78% 30.01 in 10.0 mi SSW 3.5 mph - N/A   Clear
6:35 AM 77.0 °F - 69.8 °F 78% 30.01 in 10.0 mi SSW 3.5 mph - N/A   Clear
7:15 AM 77.0 °F - 69.8 °F 78% 30.01 in 10.0 mi SSW 4.6 mph - N/A   Clear
7:35 AM 77.0 °F - 69.8 °F 78% 30.01 in 10.0 mi SSW 4.6 mph - N/A   Scattered Clouds
8:35 AM 78.8 °F - 69.8 °F 74% 30.02 in 10.0 mi SW 3.5 mph - N/A   Clear
8:55 AM 80.6 °F 84.6 °F 71.6 °F 74% 30.01 in 10.0 mi SSW 5.8 mph - N/A   Clear
9:15 AM 80.6 °F 84.6 °F 71.6 °F 74% 30.02 in 10.0 mi SW 5.8 mph - N/A   Clear
9:35 AM 80.6 °F 84.6 °F 71.6 °F 74% 30.01 in 10.0 mi SW 5.8 mph - N/A   Clear
9:55 AM 82.4 °F 87.2 °F 71.6 °F 70% 30.01 in 10.0 mi SW 6.9 mph - N/A   Clear
10:15 AM 84.2 °F 89.6 °F 71.6 °F 66% 30.01 in 10.0 mi SW 6.9 mph - N/A   Clear
10:35 AM 86.0 °F 91.8 °F 71.6 °F 62% 30.00 in 10.0 mi SW 5.8 mph - N/A   Clear
10:55 AM 87.8 °F 93.8 °F 71.6 °F 58% 30.00 in 10.0 mi SW 5.8 mph - N/A   Clear
11:15 AM 87.8 °F 93.8 °F 71.6 °F 58% 30.00 in 10.0 mi West 8.1 mph - N/A   Clear
11:35 AM 87.8 °F 93.8 °F 71.6 °F 58% 30.00 in 10.0 mi WSW 6.9 mph - N/A   Clear
11:55 AM 91.4 °F 96.8 °F 69.8 °F 49% 30.00 in 10.0 mi WNW 6.9 mph - N/A   Clear
12:15 PM 91.4 °F 98.4 °F 71.6 °F 52% 29.99 in 10.0 mi WSW 5.8 mph - N/A   Clear
12:35 PM 91.4 °F 96.8 °F 69.8 °F 49% 29.99 in 10.0 mi NNW 3.5 mph - N/A   Clear
12:55 PM 91.4 °F 96.8 °F 69.8 °F 49% 29.99 in 10.0 mi West 4.6 mph - N/A   Clear
1:15 PM 93.2 °F 97.7 °F 68.0 °F 44% 29.98 in 10.0 mi North 3.5 mph - N/A   Clear
1:35 PM 93.2 °F 98.8 °F 69.8 °F 46% 29.98 in 10.0 mi Calm Calm - N/A   Clear
1:55 PM 95.0 °F 99.5 °F 68.0 °F 41% 29.97 in 10.0 mi NW 5.8 mph - N/A   Clear
2:15 PM 93.2 °F 97.7 °F 68.0 °F 44% 29.97 in 10.0 mi West 3.5 mph - N/A   Clear
2:35 PM 95.0 °F 99.5 °F 68.0 °F 41% 29.96 in 10.0 mi Calm Calm - N/A   Clear
2:55 PM 95.0 °F 99.5 °F 68.0 °F 41% 29.95 in 10.0 mi NNE 5.8 mph - N/A   Clear
3:15 PM 95.0 °F 99.5 °F 68.0 °F 41% 29.95 in 10.0 mi SW 4.6 mph - N/A   Clear
3:35 PM 96.8 °F 101.8 °F 68.0 °F 39% 29.94 in 10.0 mi WNW 4.6 mph - N/A   Clear
3:55 PM 95.0 °F 99.5 °F 68.0 °F 41% 29.93 in 10.0 mi NW 4.6 mph - N/A   Clear
4:15 PM 96.8 °F 99.0 °F 64.4 °F 34% 29.92 in 10.0 mi Calm Calm - N/A   Clear
4:35 PM 96.8 °F 99.0 °F 64.4 °F 34% 29.91 in 10.0 mi Calm Calm - N/A   Clear
4:55 PM 95.0 °F 98.5 °F 66.2 °F 39% 29.91 in 10.0 mi Calm Calm - N/A   Clear
5:15 PM 91.4 °F 98.4 °F 71.6 °F 52% 29.90 in 10.0 mi South 9.2 mph - N/A   Clear
5:35 PM 91.4 °F 98.4 °F 71.6 °F 52% 29.90 in 10.0 mi South 8.1 mph - N/A   Clear
5:55 PM 89.6 °F 96.2 °F 71.6 °F 55% 29.89 in 10.0 mi South 6.9 mph - N/A   Clear
6:15 PM 91.4 °F 96.8 °F 69.8 °F 49% 29.88 in 10.0 mi South 9.2 mph - N/A   Clear
6:35 PM 89.6 °F 94.7 °F 69.8 °F 52% 29.89 in 10.0 mi SSW 6.9 mph - N/A   Clear
6:55 PM 89.6 °F 94.7 °F 69.8 °F 52% 29.88 in 10.0 mi South 6.9 mph - N/A   Clear
7:15 PM 89.6 °F 94.7 °F 69.8 °F 52% 29.89 in 10.0 mi South 4.6 mph - N/A   Clear
7:35 PM 89.6 °F 94.7 °F 69.8 °F 52% 29.88 in 10.0 mi South 3.5 mph - N/A   Clear
7:55 PM 87.8 °F 93.8 °F 71.6 °F 58% 29.88 in 10.0 mi South 3.5 mph - N/A   Clear
8:15 PM 87.8 °F 93.8 °F 71.6 °F 58% 29.89 in 10.0 mi Calm Calm - N/A   Clear
8:35 PM 86.0 °F 91.8 °F 71.6 °F 62% 29.89 in 10.0 mi Calm Calm - N/A   Clear
8:55 PM 84.2 °F 89.6 °F 71.6 °F 66% 29.91 in 10.0 mi Calm Calm - N/A   Clear
9:15 PM 87.8 °F 92.6 °F 69.8 °F 55% 29.91 in 10.0 mi SSW 3.5 mph - N/A   Scattered Clouds
9:35 PM 86.0 °F 90.4 °F 69.8 °F 58% 29.92 in 10.0 mi SSW 5.8 mph - N/A   Clear
9:55 PM 86.0 °F 89.4 °F 68.0 °F 55% 29.92 in 10.0 mi SW 4.6 mph - N/A   Clear
10:15 PM 86.0 °F 89.4 °F 68.0 °F 55% 29.93 in 10.0 mi SSW 3.5 mph - N/A   Clear
10:35 PM 86.0 °F 90.4 °F 69.8 °F 58% 29.93 in 10.0 mi Calm Calm - N/A   Scattered Clouds
10:55 PM 86.0 °F 90.4 °F 69.8 °F 58% 29.93 in 10.0 mi SW 3.5 mph - N/A   Scattered Clouds
11:15 PM 86.0 °F 90.4 °F 69.8 °F 58% 29.93 in 10.0 mi SSW 3.5 mph - N/A   Clear
11:35 PM 84.2 °F 88.4 °F 69.8 °F 62% 29.92 in 10.0 mi Calm Calm - N/A   Clear
11:55 PM 82.4 °F 86.3 °F 69.8 °F 66% 29.93 in 10.0 mi Calm Calm - N/A   Clear